Погода в Ягодном

Россия / Магаданская область     62°31′25″N   149°37′16″E
темп.,
°C
ветер,
м/с
пор.,
м/с
влажн.,
%
обл.,
%
осадки,
мм/ч
давл.,
гПа
погр.,
м
8 марта, пн
пн823:00−29зсз228586 0.0 100919
02:00−31з2282100 0.0 101019
05:00−35з228273 0.0 101019
08:00−35зсз228251 0.0 101119
11:00−30зсз227941 0.0 101070
14:00−27зсз22770 0.0 1008232
17:00−29сз11840 0.0 100719
20:00−34з22840 0.0 100919
9 марта, вт
вт923:00−35з22790 0.0 101019
02:00−35з22750 0.0 101019
05:00−35з22720 0.0 101019
08:00−35зсз22730 0.0 101119
11:00−29зсз11744 0.0 101057
14:00−26сз12740 0.0 1009218
17:00−27зсз11830 0.0 100919
20:00−31з22810 0.0 101219
10 марта, ср
ср1023:00−32зсз22790 0.0 101419
02:00−33зсз22820 0.0 101419
05:00−33зсз22830 0.0 101519
08:00−32зсз22840 0.0 101619
11:00−26зсз11800 0.0 101555
14:00−22зсз11790 0.0 1013172
17:00−23зсз11850 0.0 101320
20:00−27з22790 0.0 101520
11 марта, чт
чт1123:00−28з22740 0.0 101519
02:00−28з22720 0.0 101419
05:00−28з22710 0.0 101419
08:00−28з227021 0.0 101419
11:00−23зсз227340 0.0 101268
14:00−19зсз227287 0.0 1010215
17:00−21з227979 0.0 100920
20:00−25з227546 0.0 101120
12 марта, пт
пт1223:00−26зсз227273 0.0 101220
02:00−24зсз2271100 0.0 101120
05:00−25сз2274100 0.0 101120
08:00−26зсз2278100 0.0 101219
11:00−24сз227997 0.0 101181
14:00−21сз227472 0.0 1009203
17:00−23сз228163 0.0 100920
20:00−28зсз22780 0.0 101119